IVALO current weather conditions

sailwx.info

Wind from 060 at 4 knots

Air temperature -12.0° C
Dewpoint -13.0° C

Last reported at 2015-Jan-29 08:20 UTC.
Time now 2015-Jan-29 10:22 UTC

Location: N 68°37' E 027°25'.
View on Google Maps.

See reports from other nearby stations

  
Tides and Currents Weather Stations Pressure Air Temp Water Temp Dewpoint Dewpoint Depression Visibility Wind Speed Wind Dir Waves Ship Positions
date/time (UTC)wind fromknots sea level pressurealtimeterstation pressurevisibilityair tempwater tempwave heightnotes
2015-Jan-29 09:20 040 5 -12.0
2015-Jan-29 08:50 070 3 -12.0
2015-Jan-29 08:20 060 4 -12.0
2015-Jan-29 07:50 040 4 -11.0
2015-Jan-29 07:20 030 7 -11.0
2015-Jan-29 06:50 030 6 -12.0
2015-Jan-29 06:20 030 6 -11.0
2015-Jan-29 05:50 030 7 -11.0
2015-Jan-29 05:20 040 8 -10.0
2015-Jan-29 04:50 030 11 -10.0
2015-Jan-29 04:20 030 10 -10.0
2015-Jan-29 03:50 030 11 -9.0
2015-Jan-29 03:20 030 10 5.4-9.0
2015-Jan-29 02:50 040 10 5.4-9.0
2015-Jan-29 02:20 030 12 5.4-8.0
2015-Jan-29 01:50 040 13 5.4-8.0
2015-Jan-29 01:20 040 15 5.4-7.0
2015-Jan-29 00:50 030 17 5.4-7.0
2015-Jan-29 00:20 030 13 5.4-7.0
2015-Jan-28 23:50 030 12 5.4-7.0 Light snow grains.
2015-Jan-28 23:20 030 13 5.4-7.0 Light snow grains.
2015-Jan-28 22:50 030 11 5.4-7.0 Light snow grains.
2015-Jan-28 22:20 030 11 5.4-7.0
2015-Jan-28 21:50 030 10 5.4-7.0 Light ice crystals.
2015-Jan-28 21:20 030 11 4.9-7.0 Light snow.
2015-Jan-28 20:50 030 11 1.5-6.0 Light snow.
2015-Jan-28 20:20 020 10 1.7-6.0 Light snow grains. Mist.
2015-Jan-28 19:50 020 9 1.5-6.0 Light snow.
2015-Jan-28 19:20 020 9 1.3-6.0 Light snow.
2015-Jan-28 18:50 020 9 1.1-6.0 Light snow.
2015-Jan-28 18:20 020 8 1.2-6.0 Light snow.
2015-Jan-28 17:50 020 8 1.8-6.0 Light snow grains.
2015-Jan-28 17:20 020 8 2.0-6.0 Light ice pellets.
2015-Jan-28 16:50 020 8 1.9-7.0 Light snow.
2015-Jan-28 16:20 020 6 1.6-7.0 Light snow.
2015-Jan-28 15:50 020 7 1.5-7.0 Light snow.
2015-Jan-28 15:20 020 8 1.6-7.0 Light snow.
2015-Jan-28 14:50 020 8 1.3-7.0 Light snow.
2015-Jan-28 14:20 020 6 0.9-7.0 Light snow.
2015-Jan-28 13:50 020 6 0.9-7.0 Snow.
2015-Jan-28 13:20 020 5 0.8-7.0 Snow.
2015-Jan-28 12:50 020 6 1.1-7.0 Light snow.
2015-Jan-28 12:20 030 6 1.2-7.0 Light snow.
2015-Jan-28 11:50 020 5 2.2-7.0 Light snow.
2015-Jan-28 11:22 020 6 2.3-7.0 Light snow.
2015-Jan-28 10:50 020 7 2.3-7.0 Light snow.
2015-Jan-28 10:33 020 7 2.2-7.0 Light snow.
2015-Jan-28 10:20 020 7 3.2-8.0 Light snow.
2015-Jan-28 09:50 040 4 3.2-8.0
2015-Jan-28 09:20 040 4 3.2-8.0
2015-Jan-28 08:50 020 4 5.4-8.0
2015-Jan-28 08:20 040 4 5.4-9.0
2015-Jan-28 07:50 040 1 5.4-9.0
2015-Jan-28 07:20 5.4-8.0
2015-Jan-28 06:50 170 3 5.4-8.0
2015-Jan-28 06:20 190 2 5.4-9.0
2015-Jan-28 05:50 230 1 5.4-9.0
2015-Jan-28 05:20 220 3 5.4-9.0
2015-Jan-28 04:50 230 4 5.4-9.0
2015-Jan-28 04:20 220 3 5.4-9.0
2015-Jan-28 03:50 210 4 5.4-9.0
2015-Jan-28 03:20 200 6 5.4-9.0
2015-Jan-28 02:50 210 6 5.4-8.0
2015-Jan-28 02:20 210 8 5.4-8.0
2015-Jan-28 01:50 220 8 5.4-9.0
2015-Jan-28 01:20 220 7 5.4-8.0
2015-Jan-28 00:50 220 6 5.4-9.0
2015-Jan-28 00:20 220 7 5.4-8.0
2015-Jan-27 23:50 220 5 5.4-8.0
2015-Jan-27 23:20 220 4 5.4-8.0
2015-Jan-27 22:50 220 7 5.4-8.0
2015-Jan-27 22:20 210 5 -8.0
2015-Jan-27 21:50 210 3 5.4-8.0
2015-Jan-27 21:20 210 7 5.4-7.0
2015-Jan-27 20:50 210 6 5.4-7.0
2015-Jan-27 20:20 220 6 5.4-7.0
2015-Jan-27 19:50 220 7 5.4-7.0
2015-Jan-27 19:20 210 6 5.4-7.0
2015-Jan-27 18:50 200 6 5.4-7.0
2015-Jan-27 18:20 200 7 5.4-6.0
2015-Jan-27 17:50 190 6 5.4-6.0
2015-Jan-27 17:20 190 6 5.4-6.0
2015-Jan-27 16:50 190 6 5.4-6.0
2015-Jan-27 16:20 170 3 5.4-5.0
2015-Jan-27 15:50 190 3 5.4-5.0
2015-Jan-27 15:20 190 6 5.4-5.0
2015-Jan-27 14:50 200 7 5.4-5.0
2015-Jan-27 14:20 190 6 5.4-5.0
2015-Jan-27 13:50 190 6 5.4-5.0
2015-Jan-27 13:20 210 6 5.4-5.0
2015-Jan-27 12:50 200 6 5.4-5.0
2015-Jan-27 12:20 210 11 5.4-4.0
2015-Jan-27 11:50 210 12 5.4-4.0
2015-Jan-27 11:20 220 10 5.4-4.0
2015-Jan-27 10:50 210 12 5.4-4.0
2015-Jan-27 10:20 220 15 5.4-4.0